Weather History for Borger, TX

Change the Weather History Date:

Sunday, February 24, 2013

  Actual Average Record
Temperature  
Mean Temperature 40 °F 44 °F  
Max Temperature 51 °F 56 °F 76 °F (1998)
Min Temperature 29 °F 31 °F 4 °F (1965)
Degree Days  
Heating Degree Days 25 21  
Month to date heating degree days 561 560  
Since 1 July heating degree days 2597 2912  
Cooling Degree Days 0 0  
Month to date cooling degree days 0 0  
Year to date cooling degree days 0 0  
Moisture  
Dew Point 28 °F    
Average Humidity 63    
Maximum Humidity 92    
Minimum Humidity 33    
Precipitation  
Precipitation 0.04 in 0.02 in 0.25 in (1951)
Month to date precipitation 1.14 0.55  
Year to date precipitation 1.95 1.14  
Snow  
Snow T in - 2.60 in (1952)
Month to date snowfall 7.2  
Since 1 July snowfall 10.9  
Snow Depth 0.00 in    
Sea Level Pressure  
Sea Level Pressure 29.75 in    
Wind  
Wind Speed 13 mph (North)    
Max Wind Speed 28 mph    
Max Gust Speed 33 mph    
Visibility 7 miles    
Events Snow    
T = Trace of Precipitation, MM = Missing Value Source: NWS Daily Summary

Daily Weather History Graph

Daily Weather History Graph

Search for Another Location

Airport:

Trip Planner

Search our weather history database for the weather conditions in past years. The results will help you decide how hot, cold, wet, or windy it might be!

Date:

Astronomy

Feb. 24, 2013 Rise Set
Actual Time 7:21 AM CST 6:36 PM CST
Civil Twilight 6:55 AM CST 7:02 PM CST
Nautical Twilight 6:26 AM CST 7:31 PM CST
Astronomical Twilight 5:56 AM CST 8:01 PM CST
Moon 5:49 PM CST (2/24) 6:19 AM CST (2/24)
Length of Visible Light 12h 06m
Length of Day
11h 14m
Waxing Gibbous, 99% of the Moon is Illuminated
Feb 24
Waxing Gibbous
Feb 25
Full
Mar 4
Last Quarter
Mar 11
New
Mar 19
First Quarter

Hourly Weather History & Observations

Time (CST) Temp. Windchill Dew Point Humidity Pressure Visibility Wind Dir Wind Speed Gust Speed Precip Events Conditions
12:51 AM 37.9 °F 28.5 °F 28.0 °F 68% 29.70 in 10.0 mi SSE 17.3 mph 29.9 mph N/A   Clear
1:51 AM 37.0 °F 28.9 °F 28.0 °F 70% 29.70 in 10.0 mi South 12.7 mph 23.0 mph N/A   Clear
2:51 AM 36.0 °F 31.1 °F 27.0 °F 70% 29.68 in 10.0 mi SW 5.8 mph - N/A   Clear
3:51 AM 35.1 °F 31.0 °F 26.1 °F 70% 29.66 in 10.0 mi SSW 4.6 mph - N/A   Clear
4:51 AM 34.0 °F 28.0 °F 26.1 °F 73% 29.65 in 10.0 mi South 6.9 mph - N/A   Clear
5:51 AM 34.0 °F 26.0 °F 26.1 °F 73% 29.65 in 10.0 mi South 10.4 mph - N/A   Clear
6:51 AM 34.0 °F 28.0 °F 25.0 °F 70% 29.66 in 10.0 mi South 6.9 mph - N/A   Clear
7:51 AM 35.1 °F 29.3 °F 25.0 °F 67% 29.68 in 10.0 mi SSW 6.9 mph - N/A   Clear
8:51 AM 37.9 °F - 26.1 °F 62% 29.70 in 10.0 mi Calm Calm - N/A   Clear
9:51 AM 45.0 °F 41.8 °F 25.0 °F 46% 29.69 in 10.0 mi West 5.8 mph - N/A   Clear
10:51 AM 50.0 °F - 23.0 °F 35% 29.67 in 10.0 mi WSW 9.2 mph - N/A   Clear
11:51 AM 44.1 °F 37.7 °F 28.9 °F 55% 29.70 in 10.0 mi NNW 12.7 mph - N/A   Clear
12:51 PM 42.1 °F 35.7 °F 30.9 °F 65% 29.70 in 10.0 mi NNE 11.5 mph - N/A   Clear
1:51 PM 42.1 °F 34.2 °F 32.0 °F 67% 29.69 in 10.0 mi North 16.1 mph - N/A   Clear
2:51 PM 41.0 °F 31.9 °F 30.9 °F 67% 29.69 in 10.0 mi North 19.6 mph - N/A   Scattered Clouds
3:00 PM 41.0 °F 32.5 °F 30.2 °F 65% 29.69 in 10.0 mi North 17.3 mph 23.0 mph N/A   Mostly Cloudy
3:17 PM 39.2 °F 30.2 °F 30.2 °F 70% 29.70 in 10.0 mi North 17.3 mph - N/A   Mostly Cloudy
3:51 PM 37.0 °F 27.7 °F 30.0 °F 76% 29.73 in 10.0 mi North 16.1 mph - N/A   Overcast
4:51 PM 35.1 °F 23.5 °F 28.9 °F 78% 29.73 in 10.0 mi North 21.9 mph - N/A   Overcast
5:51 PM 35.1 °F 24.8 °F 28.0 °F 76% 29.79 in 10.0 mi North 17.3 mph 24.2 mph N/A   Overcast
6:43 PM 33.8 °F 24.3 °F 28.4 °F 81% 29.80 in 1.8 mi North 13.8 mph - 0.00 in Snow Light Snow
6:51 PM 33.1 °F 23.0 °F 28.9 °F 85% 29.83 in 1.2 mi North 15.0 mph - 0.00 in Snow Light Snow
7:04 PM 32.0 °F 23.0 °F 30.2 °F 93% 29.84 in 1.0 mi NNW 11.5 mph - 0.00 in Snow Light Snow
7:24 PM 32.0 °F 21.6 °F 30.2 °F 93% 29.82 in 0.8 mi NNE 15.0 mph - 0.02 in Snow Light Snow
7:47 PM 32.0 °F 22.1 °F 30.2 °F 93% 29.81 in 1.2 mi NNE 13.8 mph - 0.04 in Snow Light Snow
7:51 PM 32.0 °F 20.8 °F 30.0 °F 92% 29.82 in 1.5 mi NNE 17.3 mph - 0.04 in Snow Light Snow
7:59 PM 32.0 °F 20.5 °F 28.4 °F 87% 29.77 in 3.0 mi North 18.4 mph 27.6 mph 0.00 in Snow Light Snow
8:51 PM 32.0 °F 21.2 °F 28.0 °F 85% 29.82 in 9.0 mi North 16.1 mph 32.2 mph 0.00 in   Overcast
9:51 PM 30.9 °F 19.8 °F 27.0 °F 85% 29.84 in 10.0 mi NNE 16.1 mph 29.9 mph N/A   Overcast
10:13 PM 30.2 °F 17.1 °F 26.6 °F 86% 29.81 in 8.0 mi North 21.9 mph - N/A   Overcast
10:36 PM 30.2 °F 16.8 °F 26.6 °F 86% 29.83 in 5.0 mi North 23.0 mph 28.8 mph 0.00 in Snow Light Snow
10:51 PM 30.0 °F 16.0 °F 26.1 °F 85% 29.83 in 4.0 mi NNE 25.3 mph 29.9 mph 0.00 in Snow Light Snow
11:17 PM 28.4 °F 15.8 °F 26.6 °F 93% 29.84 in 2.0 mi NNE 18.4 mph 28.8 mph 0.00 in Snow Light Snow
11:27 PM 28.4 °F 14.7 °F 26.6 °F 93% 29.81 in 1.8 mi NNE 21.9 mph 29.9 mph 0.00 in Snow Light Snow
11:36 PM 28.4 °F 17.0 °F 26.6 °F 93% 29.84 in 2.0 mi North 15.0 mph - 0.00 in Snow Light Snow
11:51 PM 28.9 °F 15.4 °F 26.1 °F 89% 29.83 in 1.8 mi North 21.9 mph 28.8 mph 0.00 in Snow Light Snow